Simultaneous Nadir Overpasses (SNOs) Predictions

Prediction of SNOs between GOES-15 and LANDSAT-8 Satellite Orbit:

Table of predicted SNOs for the next 14.0 days since TLE Epoch: 5/22/2021
Index Date Time (GOES-15) GOES-15 Lat,Lon LANDSAT-8 Lat,Lon Distance(km) Time Diff (sec)
1 05/22/2021 06:48:13 0.04,-128.29 0.00,-128.75 51.18 80
2 05/24/2021 06:33:22 0.04,-128.33 0.58,-125.78 289.46 80
3 05/24/2021 18:54:38 -0.04,-128.35 0.51,-130.94 294.48 80
4 05/26/2021 18:45:08 -0.04,-128.38 -0.13,-127.99 44.97 80
5 05/28/2021 18:32:58 -0.05,-128.41 -0.77,-125.03 383.66 80
6 05/29/2021 06:54:22 0.05,-128.41 -0.36,-130.22 206.90 80
7 05/31/2021 06:39:32 0.06,-128.43 0.29,-127.27 131.23 80
8 05/31/2021 19:00:48 -0.07,-128.43 0.80,-132.43 454.77 80
9 06/02/2021 06:27:22 0.06,-128.45 0.94,-124.32 469.45 80
10 06/02/2021 18:48:38 -0.07,-128.45 0.15,-129.48 116.29 80
11 06/04/2021 18:39:08 -0.07,-128.47 -0.50,-126.52 222.13 80
